Volver al catálogo

STARLINK-30930

ActivoComunicacionesVLEO
NORAD 58385·PAYLOAD·🇺🇸 United States

Lanzado Nov 20, 2023 desde Vandenberg Space Force Base

Loading…

Próximos Pases (próximas 24 horas)

TLE

ActualizadoSource: CelesTrak SupGP

Época: Sep 15, 2026, 02:53 UTC

1 58385C 23178M   26258.12062500 -.00066165  00000+0 -19549-2 0  2582
2 58385  53.1588 196.6430 0001379  86.8020  79.3204 15.34423110    14

Sigue STARLINK-30930 en tiempo real con AllMySat

Download on the App Store